This is the latest recevied weather packets stored in our database for station/object N4DWK. If no packets are shown the sender has not sent any weather packets the latest 10 day(s).
| Time | Temp. | Humidity | Pressure | Rain* | Wind** | Luminosity | Snow |
|---|---|---|---|---|---|---|---|
| 1778165105 | 13.89° C | 81% | 1012 hPa | 0 mm | - | 19 W/m² | - |
| 1778164805 | 13.89° C | 81% | 1011.8 hPa | 0 mm | - | 19 W/m² | - |
| 1778164505 | 13.89° C | 81% | 1011.8 hPa | 0 mm | - | 35 W/m² | - |
| 1778164204 | 13.89° C | 82% | 1012 hPa | 0 mm | - | 42 W/m² | - |
| 1778163905 | 13.89° C | 82% | 1012.1 hPa | 0 mm | - | 35 W/m² | - |
| 1778163605 | 13.89° C | 82% | 1012.2 hPa | 0 mm | - | 35 W/m² | - |
| 1778163304 | 13.89° C | 82% | 1012.1 hPa | 0 mm | - | 33 W/m² | - |
| 1778163005 | 13.89° C | 82% | 1012.1 hPa | 0 mm | - | 35 W/m² | - |
| 1778162704 | 13.89° C | 83% | 1012.3 hPa | 0 mm | - | 33 W/m² | - |
| 1778162405 | 13.89° C | 83% | 1012.3 hPa | 0 mm | - | 28 W/m² | - |
| 1778162104 | 13.89° C | 82% | 1012.3 hPa | 0 mm | - | 35 W/m² | - |
| 1778161804 | 13.89° C | 82% | 1012.3 hPa | 0 mm | - | 30 W/m² | - |
| 1778161506 | 13.89° C | 83% | 1012.4 hPa | 0 mm | - | 33 W/m² | - |
| 1778161204 | 13.89° C | 83% | 1012.2 hPa | 0 mm | - | 39 W/m² | - |
| 1778160905 | 13.89° C | 84% | 1012 hPa | 0 mm | - | 40 W/m² | - |
| 1778160604 | 13.89° C | 85% | 1012 hPa | 0 mm | - | 53 W/m² | - |
| 1778160305 | 13.89° C | 86% | 1011.9 hPa | 0 mm | - | 47 W/m² | - |
| 1778160004 | 13.89° C | 86% | 1011.8 hPa | 0 mm | - | 56 W/m² | - |
| 1778159705 | 13.89° C | 87% | 1012.1 hPa | 0 mm | - | 28 W/m² | - |
| 1778159405 | 13.89° C | 87% | 1012.1 hPa | 0 mm | - | 35 W/m² | - |
| 1778159104 | 13.89° C | 88% | 1012 hPa | 0 mm | - | 46 W/m² | - |
| 1778158805 | 13.89° C | 88% | 1011.8 hPa | 0 mm | - | 47 W/m² | - |
| 1778158504 | 13.89° C | 89% | 1011.8 hPa | 0 mm | - | 47 W/m² | - |
| 1778158204 | 13.89° C | 90% | 1011.9 hPa | 0 mm | - | 58 W/m² | - |
| 1778157904 | 13.89° C | 90% | 1011.8 hPa | 0 mm | - | 53 W/m² | - |
* Rain latest hour (hover to see other rain measurements)
** Current wind speed in m/s (hover to see current wind gust speed)